Zurück zum Katalog

FENGYUN 1C DEB

AktivSSO
NORAD 32352·DEBRIS·🇨🇳 China

Gestartet May 10, 1999 von Taiyuan Satellite Launch Center

Loading…

Nächste Überflüge (nächste 24 Stunden)

TLE

AktuellSource: Space-Track

Epoche: Sep 12, 2026, 00:39 UTC

1 32352U 99025CYV 26255.02749651  .00000652  00000-0  19596-3 0  9990
2 32352  98.7856 187.8097 0122308  77.4252 284.0583 14.41941401692076

Verfolge FENGYUN 1C DEB in Echtzeit mit AllMySat

Download on the App Store